Monticello, KY

11:47 AM EDT on August 16, 2017 (GMT -0400)
Wayne County

Weather History for KEKQ - November, 2011

Change the Weather History Date:

Sunday, November 27, 2011

  Actual Average Record
Temperature  
Mean Temperature 52 °F -  
Max Temperature 61 °F 57 °F 74 °F (1985)
Min Temperature 43 °F 38 °F 15 °F (2016)
Degree Days  
Heating Degree Days 13    
Growing Degree Days 2 (Base 50)    
Moisture  
Dew Point 52 °F    
Average Humidity 94    
Maximum Humidity 100    
Minimum Humidity 65    
Precipitation  
Precipitation 0.87 in - - ()
Sea Level Pressure  
Sea Level Pressure 29.94 in    
Wind  
Wind Speed 12 mph (SSW)    
Max Wind Speed 22 mph    
Max Gust Speed 32 mph    
Visibility 3 miles    
Events Rain    
Averages and records for this station are not official NWS values.
T = Trace of Precipitation, MM = Missing Value Source: NWS Daily Summary

Daily Weather History Graph

Daily Weather History Graph

Search for Another Location

Airport or City:

Trip Planner

Search our weather history database for the weather conditions in past years. The results will help you decide how hot, cold, wet, or windy it might be!

Date:

Astronomy

Nov. 27, 2011 Rise Set
Actual Time 6:29 AM CST 4:24 PM CST
Civil Twilight 6:01 AM CST 4:52 PM CST
Nautical Twilight 5:29 AM CST 5:24 PM CST
Astronomical Twilight 4:58 AM CST 5:55 PM CST
Moon 8:53 AM CST (11/27) 7:02 PM CST (11/27)
Length of Visible Light 10h 51m
Length of Day
9h 54m
Waxing Crescent, 8% of the Moon is Illuminated
Nov 27
Waxing Crescent
Dec 2
First Quarter
Dec 10
Full
Dec 17
Last Quarter
Dec 24
New

Hourly Weather History & Observations

Time (CST) Temp. Windchill Dew Point Humidity Pressure Visibility Wind Dir Wind Speed Gust Speed Precip Events Conditions
12:56 AM 61.9 °F - 50.0 °F 65% 29.97 in 10.0 mi SSE 17.3 mph - N/A   Scattered Clouds
1:56 AM 61.9 °F - 50.9 °F 67% 29.96 in 10.0 mi South 17.3 mph - N/A   Mostly Cloudy
2:56 AM 61.9 °F - 50.9 °F 67% 29.95 in 10.0 mi South 11.5 mph - N/A   Scattered Clouds
3:56 AM 59.9 °F - 54.0 °F 81% 29.93 in 6.0 mi South 15.0 mph - 0.00 in Rain Light Rain
5:43 AM 60.8 °F - 55.4 °F 82% 29.89 in 2.5 mi SSE 17.3 mph 32.2 mph 0.02 in Rain Light Rain
5:47 AM 60.8 °F - 55.4 °F 82% 29.89 in 3.0 mi SSE 20.7 mph 26.5 mph 0.02 in Rain Light Rain
5:56 AM 59.9 °F - 54.9 °F 83% 29.89 in 3.0 mi SSE 21.9 mph - 0.02 in Rain Light Rain
7:24 AM 60.8 °F - 55.4 °F 82% 29.89 in 10.0 mi South 20.7 mph - 0.00 in Rain Light Rain
7:43 AM 60.8 °F - 57.2 °F 88% 29.90 in 2.0 mi South 13.8 mph - 0.01 in Rain Light Rain
7:56 AM 59.9 °F - 55.9 °F 87% 29.91 in 4.0 mi South 17.3 mph - 0.01 in Rain Light Rain
8:26 AM 60.8 °F - 57.2 °F 88% 29.92 in 2.5 mi SSE 13.8 mph - 0.01 in Rain Rain
8:35 AM 60.8 °F - 57.2 °F 88% 29.93 in 1.8 mi South 11.5 mph - 0.02 in Rain Light Rain
9:04 AM 60.8 °F - 57.2 °F 88% 29.94 in 2.0 mi South 16.1 mph - 0.01 in Rain Light Rain
9:17 AM 60.8 °F - 57.2 °F 88% 29.95 in 7.0 mi South 19.6 mph - 0.01 in Rain Light Rain
9:37 AM 60.8 °F - 57.2 °F 88% 29.96 in 2.0 mi South 10.4 mph - 0.03 in Rain Rain
9:46 AM 60.8 °F - 57.2 °F 88% 29.96 in 2.0 mi SSW 12.7 mph - 0.05 in Rain Light Rain
9:56 AM 59.9 °F - 57.9 °F 93% 29.97 in 3.0 mi SSW 12.7 mph - 0.05 in Rain Light Rain
10:19 AM 60.8 °F - 57.2 °F 88% 29.96 in 2.0 mi SSW 8.1 mph - 0.00 in Rain Light Rain
10:26 AM 60.8 °F - 57.2 °F 88% 29.96 in 1.5 mi SW 8.1 mph - 0.00 in Rain Light Rain
10:30 AM 60.8 °F - 57.2 °F 88% 29.96 in 1.0 mi SSW 6.9 mph - 0.01 in Rain Light Rain
10:39 AM 59.0 °F - 59.0 °F 100% 29.96 in 0.8 mi SSW 6.9 mph - 0.01 in   Overcast
10:56 AM 59.0 °F - 59.0 °F 100% 29.96 in 0.8 mi South 9.2 mph - 0.02 in Rain Light Rain
11:04 AM 59.0 °F - 59.0 °F 100% 29.94 in 1.0 mi South 9.2 mph - 0.00 in Rain Light Rain
11:12 AM 59.0 °F - 59.0 °F 100% 29.94 in 1.2 mi South 5.8 mph - 0.01 in Rain Light Rain
11:22 AM 60.8 °F - 59.0 °F 94% 29.94 in 1.8 mi Calm Calm - 0.01 in Rain Light Rain
11:41 AM 60.8 °F - 59.0 °F 94% 29.93 in 1.0 mi SSE 8.1 mph - 0.02 in Rain Light Rain
12:04 PM 59.0 °F - 57.2 °F 94% 29.93 in 3.0 mi South 9.2 mph - 0.00 in   Overcast
12:06 PM 59.0 °F - 57.2 °F 94% 29.93 in 2.0 mi SSE 11.5 mph - 0.00 in Rain Light Rain
12:08 PM 59.0 °F - 57.2 °F 94% 29.93 in 1.8 mi SSE 13.8 mph - 0.00 in Rain Light Rain
12:17 PM 59.0 °F - 57.2 °F 94% 29.93 in 1.2 mi South 18.4 mph - 0.00 in Rain Light Rain
12:31 PM 59.0 °F - 57.2 °F 94% 29.93 in 1.8 mi SSE 12.7 mph - 0.01 in   Overcast
12:37 PM 59.0 °F - 57.2 °F 94% 29.92 in 1.2 mi SSE 11.5 mph - 0.02 in   Mostly Cloudy
12:48 PM 59.0 °F - 57.2 °F 94% 29.92 in 2.0 mi SSE 10.4 mph - 0.03 in   Overcast
12:56 PM 59.0 °F - 57.9 °F 96% 29.92 in 4.0 mi SSE 12.7 mph - 0.03 in Rain Light Rain
1:23 PM 59.0 °F - 57.2 °F 94% 29.91 in 1.8 mi South 13.8 mph - 0.00 in Rain Light Rain
1:38 PM 57.2 °F - 57.2 °F 100% 29.91 in 1.2 mi South 10.4 mph - 0.01 in Rain Light Rain
1:48 PM 57.2 °F - 57.2 °F 100% 29.91 in 1.8 mi SSE 9.2 mph - 0.01 in Rain Light Rain
1:56 PM 57.9 °F - 56.8 °F 96% 29.92 in 2.5 mi South 10.4 mph - 0.01 in Rain Light Rain
2:15 PM 57.2 °F - 55.4 °F 94% 29.91 in 1.5 mi South 10.4 mph - 0.00 in Rain Light Rain
2:26 PM 57.2 °F - 55.4 °F 94% 29.91 in 3.0 mi South 9.2 mph - 0.01 in Rain Light Rain
2:56 PM 55.9 °F - 54.9 °F 96% 29.93 in 3.0 mi South 6.9 mph - 0.02 in Rain Light Rain
3:08 PM 55.4 °F - 55.4 °F 100% 29.92 in 2.0 mi South 8.1 mph - 0.02 in Rain Light Rain
3:56 PM 55.9 °F - 54.9 °F 96% 29.94 in 4.0 mi Calm Calm - 0.06 in Rain Light Rain
4:11 PM 55.4 °F - 55.4 °F 100% 29.93 in 1.8 mi SW 4.6 mph - 0.01 in Rain Rain
4:23 PM 53.6 °F - 53.6 °F 100% 29.94 in 1.5 mi NW 12.7 mph 16.1 mph 0.02 in Rain Rain
4:31 PM 51.8 °F - 51.8 °F 100% 29.94 in 2.0 mi NW 10.4 mph - 0.04 in Rain Rain
4:56 PM 50.0 °F - 50.0 °F 100% 29.94 in 4.0 mi NNW 4.6 mph - 0.07 in Rain Light Rain
5:09 PM 50.0 °F - 50.0 °F 100% 29.93 in 5.0 mi Calm Calm - 0.01 in Rain Light Rain
5:26 PM 48.2 °F - 48.2 °F 100% 29.94 in 6.0 mi NW 6.9 mph - 0.02 in Rain Light Rain
5:44 PM 48.2 °F - 48.2 °F 100% 29.95 in 2.5 mi NW 8.1 mph - 0.04 in Rain Rain
5:56 PM 47.8 °F - 46.9 °F 97% 29.96 in 4.0 mi NNW 6.9 mph - 0.04 in Rain Light Rain
6:48 PM 46.4 °F 41.9 °F 46.4 °F 100% 29.95 in 2.0 mi NW 9.2 mph - 0.07 in Rain Light Rain
6:56 PM 46.9 °F - 46.9 °F 100% 29.97 in 1.5 mi NW 8.1 mph - 0.09 in Rain Rain
7:07 PM 46.4 °F 42.4 °F 46.4 °F 100% 29.96 in 1.8 mi NW 8.1 mph - 0.02 in Rain Rain
7:11 PM 46.4 °F - 46.4 °F 100% 29.97 in 2.0 mi Calm Calm - 0.03 in Rain Rain
7:25 PM 46.4 °F 43.5 °F 46.4 °F 100% 29.97 in 3.0 mi NW 5.8 mph - 0.04 in Rain Light Rain
7:32 PM 46.4 °F 42.9 °F 46.4 °F 100% 29.97 in 1.8 mi WNW 6.9 mph - 0.06 in Rain Rain
7:43 PM 46.4 °F 41.9 °F 46.4 °F 100% 29.98 in 1.5 mi WNW 9.2 mph - 0.09 in Rain Rain
7:56 PM 45.9 °F 40.8 °F 45.9 °F 100% 30.00 in 1.8 mi NW 10.4 mph - 0.13 in Rain Rain
8:07 PM 46.4 °F 41.5 °F 46.4 °F 100% 29.98 in 1.5 mi WNW 10.4 mph - 0.03 in Rain Rain
8:22 PM 44.6 °F 38.8 °F 44.6 °F 100% 29.99 in 2.5 mi NW 11.5 mph - 0.07 in Rain Light Rain
8:39 PM 44.6 °F 41.4 °F 44.6 °F 100% 29.98 in 1.5 mi NW 5.8 mph - 0.11 in Rain Rain
8:56 PM 43.9 °F - 43.9 °F 100% 29.99 in 2.5 mi Calm Calm - 0.12 in Rain Light Rain
9:20 PM 44.6 °F 41.4 °F 44.6 °F 100% 29.98 in 1.8 mi NW 5.8 mph - 0.04 in Rain Rain
9:42 PM 44.6 °F 40.2 °F 44.6 °F 100% 29.96 in 2.0 mi North 8.1 mph - 0.08 in Rain Rain
9:56 PM 43.9 °F 40.5 °F 43.9 °F 100% 29.97 in 2.5 mi North 5.8 mph - 0.09 in Rain Light Rain
10:09 PM 44.6 °F - 44.6 °F 100% 29.95 in 1.8 mi Calm Calm - 0.01 in Rain Rain
10:23 PM 44.6 °F - 44.6 °F 100% 29.95 in 2.0 mi Calm Calm - 0.02 in Rain Light Rain
10:33 PM 44.6 °F - 44.6 °F 100% 29.95 in 1.8 mi Calm Calm - 0.03 in Rain Light Rain
11:00 PM 44.6 °F 43.1 °F 44.6 °F 100% 29.95 in 1.0 mi North 3.5 mph - 0.01 in Rain Rain
11:08 PM 44.6 °F 40.7 °F 44.6 °F 100% 29.96 in 1.2 mi NNW 6.9 mph - 0.02 in Rain Rain
11:19 PM 44.6 °F - 44.6 °F 100% 29.96 in 1.0 mi Calm Calm - 0.06 in Rain Heavy Rain
11:28 PM 44.6 °F 40.7 °F 44.6 °F 100% 29.96 in 1.0 mi North 6.9 mph - 0.08 in Rain Rain
11:33 PM 44.6 °F - 44.6 °F 100% 29.96 in 1.2 mi Calm Calm - 0.08 in Rain Rain
11:44 PM 44.6 °F - 44.6 °F 100% 29.96 in 1.5 mi Calm Calm - 0.10 in Rain Light Rain
11:56 PM 43.9 °F - 43.9 °F 100% 29.98 in 1.5 mi Calm Calm - 0.11 in Rain Light Rain